Time,TemperatureF,DewpointF,PressureIn,WindDirection,WindDirectionDegrees,WindSpeedMPH,WindSpeedGustMPH,Humidity,HourlyPrecipIn,Conditions,Clouds,dailyrainin,SoftwareType,DateUTC
2013-03-18 00:03:00,50.0,-99.9,30.10,NE,52,22.0,26.0,-999,-99.99,,,-99.99,,2013-03-18 04:03:00,
2013-03-18 00:13:00,50.0,-99.9,30.09,NE,56,28.0,31.0,-999,-99.99,,,-99.99,,2013-03-18 04:13:00,
2013-03-18 00:23:00,50.0,-99.9,30.09,NE,55,26.0,29.0,-999,-99.99,,,-99.99,,2013-03-18 04:23:00,
2013-03-18 00:33:00,50.0,-99.9,30.09,NE,50,21.0,26.0,-999,-99.99,,,-99.99,,2013-03-18 04:33:00,
2013-03-18 00:42:00,50.0,-99.9,30.09,NE,48,25.0,29.0,-999,-99.99,,,-99.99,,2013-03-18 04:42:00,
2013-03-18 00:53:00,50.0,-99.9,30.09,NE,54,22.0,25.0,-999,-99.99,,,-99.99,,2013-03-18 04:53:00,
2013-03-18 01:03:00,50.0,-99.9,30.09,NE,51,23.0,27.0,-999,-99.99,,,-99.99,,2013-03-18 05:03:00,
2013-03-18 01:12:00,50.0,-99.9,30.10,NE,51,21.0,24.0,-999,-99.99,,,-99.99,,2013-03-18 05:12:00,
2013-03-18 01:23:00,50.0,-99.9,30.09,NE,56,24.0,27.0,-999,-99.99,,,-99.99,,2013-03-18 05:23:00,
2013-03-18 01:33:00,50.0,-99.9,30.09,NE,49,24.0,27.0,-999,-99.99,,,-99.99,,2013-03-18 05:33:00,
2013-03-18 01:43:00,50.0,-99.9,30.09,NE,52,22.0,26.0,-999,-99.99,,,-99.99,,2013-03-18 05:43:00,
2013-03-18 01:52:00,50.0,-99.9,30.09,NE,48,23.0,26.0,-999,-99.99,,,-99.99,,2013-03-18 05:52:00,
2013-03-18 02:02:00,50.0,-99.9,30.09,NE,52,24.0,26.0,-999,-99.99,,,-99.99,,2013-03-18 06:02:00,
2013-03-18 02:12:00,50.0,-99.9,30.08,NE,49,23.0,26.0,-999,-99.99,,,-99.99,,2013-03-18 06:12:00,
2013-03-18 02:22:00,50.0,-99.9,30.08,NE,46,24.0,26.0,-999,-99.99,,,-99.99,,2013-03-18 06:22:00,
2013-03-18 02:32:00,50.0,-99.9,30.09,NE,46,22.0,26.0,-999,-99.99,,,-99.99,,2013-03-18 06:32:00,
2013-03-18 02:42:00,50.0,-99.9,30.09,NE,43,23.0,26.0,-999,-99.99,,,-99.99,,2013-03-18 06:42:00,
2013-03-18 02:53:00,50.0,-99.9,30.09,NE,45,20.0,23.0,-999,-99.99,,,-99.99,,2013-03-18 06:53:00,
2013-03-18 03:02:00,50.0,-99.9,30.09,NE,42,21.0,24.0,-999,-99.99,,,-99.99,,2013-03-18 07:02:00,
2013-03-18 03:13:00,50.0,-99.9,30.08,NE,50,21.0,25.0,-999,-99.99,,,-99.99,,2013-03-18 07:13:00,
2013-03-18 03:23:00,50.0,-99.9,30.07,NE,38,21.0,23.0,-999,-99.99,,,-99.99,,2013-03-18 07:23:00,
2013-03-18 03:33:00,50.0,-99.9,30.07,NE,36,19.0,22.0,-999,-99.99,,,-99.99,,2013-03-18 07:33:00,
2013-03-18 03:43:00,49.0,-99.9,30.07,NNE,33,17.0,19.0,-999,-99.99,,,-99.99,,2013-03-18 07:43:00,
2013-03-18 03:53:00,49.0,-99.9,30.07,NE,37,19.0,20.0,-999,-99.99,,,-99.99,,2013-03-18 07:53:00,
2013-03-18 04:02:00,50.0,-99.9,30.08,NNE,32,17.0,19.0,-999,-99.99,,,-99.99,,2013-03-18 08:02:00,
2013-03-18 04:12:00,49.0,-99.9,30.07,NE,34,15.0,19.0,-999,-99.99,,,-99.99,,2013-03-18 08:12:00,
2013-03-18 04:22:00,50.0,-99.9,30.07,NE,35,17.0,22.0,-999,-99.99,,,-99.99,,2013-03-18 08:22:00,
2013-03-18 04:32:00,50.0,-99.9,30.06,NE,36,18.0,21.0,-999,-99.99,,,-99.99,,2013-03-18 08:32:00,
2013-03-18 04:43:00,50.0,-99.9,30.06,NE,38,19.0,21.0,-999,-99.99,,,-99.99,,2013-03-18 08:43:00,
2013-03-18 04:53:00,50.0,-99.9,30.06,NE,40,20.0,22.0,-999,-99.99,,,-99.99,,2013-03-18 08:53:00,
2013-03-18 05:02:00,50.0,-99.9,30.06,NE,46,19.0,22.0,-999,-99.99,,,-99.99,,2013-03-18 09:02:00,
2013-03-18 05:13:00,50.0,-99.9,30.06,NE,38,19.0,22.0,-999,-99.99,,,-99.99,,2013-03-18 09:13:00,
2013-03-18 05:22:00,50.0,-99.9,30.05,NE,37,18.0,20.0,-999,-99.99,,,-99.99,,2013-03-18 09:22:00,
2013-03-18 05:33:00,50.0,-99.9,30.05,NE,44,21.0,23.0,-999,-99.99,,,-99.99,,2013-03-18 09:33:00,
2013-03-18 05:43:00,50.0,-99.9,30.05,NE,48,19.0,21.0,-999,-99.99,,,-99.99,,2013-03-18 09:43:00,
2013-03-18 05:53:00,50.0,-99.9,30.05,NE,38,17.0,19.0,-999,-99.99,,,-99.99,,2013-03-18 09:53:00,
2013-03-18 06:04:00,50.0,-99.9,30.05,NE,35,17.0,19.0,-999,-99.99,,,-99.99,,2013-03-18 10:04:00,
2013-03-18 06:13:00,51.0,-99.9,30.05,NNE,33,19.0,22.0,-999,-99.99,,,-99.99,,2013-03-18 10:13:00,
2013-03-18 06:23:00,51.0,-99.9,30.06,NNE,33,17.0,19.0,-999,-99.99,,,-99.99,,2013-03-18 10:23:00,
2013-03-18 06:33:00,50.0,-99.9,30.06,NNE,15,11.0,14.0,-999,-99.99,,,-99.99,,2013-03-18 10:33:00,
2013-03-18 06:42:00,49.0,-99.9,30.06,North,9,8.0,10.0,-999,-99.99,,,-99.99,,2013-03-18 10:42:00,
2013-03-18 06:53:00,49.0,-99.9,30.06,North,3,8.0,10.0,-999,-99.99,,,-99.99,,2013-03-18 10:53:00,
2013-03-18 07:03:00,49.0,-99.9,30.07,North,357,8.0,10.0,-999,-99.99,,,-99.99,,2013-03-18 11:03:00,
2013-03-18 07:13:00,49.0,-99.9,30.07,North,2,9.0,11.0,-999,-99.99,,,-99.99,,2013-03-18 11:13:00,
2013-03-18 07:22:00,49.0,-99.9,30.08,North,357,11.0,13.0,-999,-99.99,,,-99.99,,2013-03-18 11:22:00,
2013-03-18 07:32:00,48.0,-99.9,30.08,North,5,13.0,15.0,-999,-99.99,,,-99.99,,2013-03-18 11:32:00,
2013-03-18 07:43:00,48.0,-99.9,30.08,North,10,11.0,14.0,-999,-99.99,,,-99.99,,2013-03-18 11:43:00,
2013-03-18 07:53:00,48.0,-99.9,30.08,North,10,12.0,14.0,-999,-99.99,,,-99.99,,2013-03-18 11:53:00,
2013-03-18 08:03:00,48.0,-99.9,30.09,North,5,10.0,14.0,-999,-99.99,,,-99.99,,2013-03-18 12:03:00,
2013-03-18 08:13:00,48.0,-99.9,30.09,North,7,9.0,11.0,-999,-99.99,,,-99.99,,2013-03-18 12:13:00,
2013-03-18 08:22:00,48.0,-99.9,30.10,North,11,12.0,13.0,-999,-99.99,,,-99.99,,2013-03-18 12:22:00,
2013-03-18 08:33:00,48.0,-99.9,30.10,NNE,17,11.0,13.0,-999,-99.99,,,-99.99,,2013-03-18 12:33:00,
2013-03-18 08:43:00,48.0,-99.9,30.09,North,7,12.0,14.0,-999,-99.99,,,-99.99,,2013-03-18 12:43:00,
2013-03-18 08:52:00,48.0,-99.9,30.09,NNE,13,12.0,14.0,-999,-99.99,,,-99.99,,2013-03-18 12:52:00,
2013-03-18 09:03:00,48.0,-99.9,30.09,NNE,16,15.0,16.0,-999,-99.99,,,-99.99,,2013-03-18 13:03:00,
2013-03-18 09:12:00,48.0,-99.9,30.10,NNE,21,15.0,17.0,-999,-99.99,,,-99.99,,2013-03-18 13:12:00,
2013-03-18 09:23:00,48.0,-99.9,30.10,North,8,15.0,17.0,-999,-99.99,,,-99.99,,2013-03-18 13:23:00,
2013-03-18 09:33:00,49.0,-99.9,30.09,NNE,14,14.0,16.0,-999,-99.99,,,-99.99,,2013-03-18 13:33:00,
2013-03-18 09:43:00,49.0,-99.9,30.10,NNE,18,15.0,17.0,-999,-99.99,,,-99.99,,2013-03-18 13:43:00,
2013-03-18 09:52:00,49.0,-99.9,30.10,NNE,20,12.0,16.0,-999,-99.99,,,-99.99,,2013-03-18 13:52:00,
2013-03-18 10:03:00,49.0,-99.9,30.11,NNE,31,13.0,15.0,-999,-99.99,,,-99.99,,2013-03-18 14:03:00,
2013-03-18 10:12:00,49.0,-99.9,30.11,NNE,25,10.0,12.0,-999,-99.99,,,-99.99,,2013-03-18 14:12:00,
2013-03-18 10:22:00,49.0,-99.9,30.11,NNE,22,10.0,11.0,-999,-99.99,,,-99.99,,2013-03-18 14:22:00,
2013-03-18 10:32:00,49.0,-99.9,30.11,NNE,26,12.0,14.0,-999,-99.99,,,-99.99,,2013-03-18 14:32:00,
2013-03-18 10:42:00,49.0,-99.9,30.11,NNE,20,12.0,14.0,-999,-99.99,,,-99.99,,2013-03-18 14:42:00,
2013-03-18 10:52:00,49.0,-99.9,30.11,NNE,24,11.0,12.0,-999,-99.99,,,-99.99,,2013-03-18 14:52:00,
2013-03-18 11:02:00,50.0,-99.9,30.10,NE,38,8.0,9.0,-999,-99.99,,,-99.99,,2013-03-18 15:02:00,
2013-03-18 11:12:00,50.0,-99.9,30.09,NE,42,11.0,12.0,-999,-99.99,,,-99.99,,2013-03-18 15:12:00,
2013-03-18 11:23:00,50.0,-99.9,30.09,NE,42,9.0,10.0,-999,-99.99,,,-99.99,,2013-03-18 15:23:00,
2013-03-18 11:33:00,50.0,-99.9,30.09,NE,40,8.0,9.0,-999,-99.99,,,-99.99,,2013-03-18 15:33:00,
2013-03-18 11:43:00,50.0,-99.9,30.09,NE,43,7.0,8.0,-999,-99.99,,,-99.99,,2013-03-18 15:43:00,
2013-03-18 11:52:00,51.0,-99.9,30.09,ENE,60,6.0,7.0,-999,-99.99,,,-99.99,,2013-03-18 15:52:00,
2013-03-18 12:03:00,51.0,-99.9,30.09,NE,53,7.0,8.0,-999,-99.99,,,-99.99,,2013-03-18 16:03:00,
2013-03-18 12:12:00,51.0,-99.9,30.08,ENE,69,7.0,8.0,-999,-99.99,,,-99.99,,2013-03-18 16:12:00,
2013-03-18 12:23:00,51.0,-99.9,30.08,NE,54,7.0,9.0,-999,-99.99,,,-99.99,,2013-03-18 16:23:00,
2013-03-18 12:33:00,51.0,-99.9,30.08,NE,49,7.0,8.0,-999,-99.99,,,-99.99,,2013-03-18 16:33:00,
2013-03-18 12:42:00,50.0,-99.9,30.07,ENE,59,7.0,9.0,-999,-99.99,,,-99.99,,2013-03-18 16:42:00,
2013-03-18 12:53:00,50.0,-99.9,30.07,NE,51,8.0,9.0,-999,-99.99,,,-99.99,,2013-03-18 16:53:00,
2013-03-18 13:03:00,51.0,-99.9,30.07,ENE,69,6.0,7.0,-999,-99.99,,,-99.99,,2013-03-18 17:03:00,
2013-03-18 13:12:00,51.0,-99.9,30.07,NE,56,6.0,6.0,-999,-99.99,,,-99.99,,2013-03-18 17:12:00,
2013-03-18 13:22:00,51.0,-99.9,30.07,ENE,60,7.0,8.0,-999,-99.99,,,-99.99,,2013-03-18 17:22:00,
2013-03-18 13:33:00,51.0,-99.9,30.06,ENE,66,7.0,7.0,-999,-99.99,,,-99.99,,2013-03-18 17:33:00,
2013-03-18 13:43:00,52.0,-99.9,30.06,ENE,72,9.0,9.0,-999,-99.99,,,-99.99,,2013-03-18 17:43:00,
2013-03-18 13:52:00,52.0,-99.9,30.06,East,83,9.0,10.0,-999,-99.99,,,-99.99,,2013-03-18 17:52:00,
2013-03-18 14:02:00,52.0,-99.9,30.04,East,85,11.0,12.0,-999,-99.99,,,-99.99,,2013-03-18 18:02:00,
2013-03-18 14:13:00,52.0,-99.9,30.04,East,96,11.0,11.0,-999,-99.99,,,-99.99,,2013-03-18 18:13:00,
2013-03-18 14:22:00,52.0,-99.9,30.03,ESE,108,11.0,12.0,-999,-99.99,,,-99.99,,2013-03-18 18:22:00,
2013-03-18 14:32:00,52.0,-99.9,30.03,ESE,112,11.0,12.0,-999,-99.99,,,-99.99,,2013-03-18 18:32:00,
2013-03-18 14:42:00,53.0,-99.9,30.02,ESE,116,9.0,11.0,-999,-99.99,,,-99.99,,2013-03-18 18:42:00,
2013-03-18 14:52:00,53.0,-99.9,30.02,ESE,114,9.0,10.0,-999,-99.99,,,-99.99,,2013-03-18 18:52:00,
2013-03-18 15:03:00,53.0,-99.9,30.01,ESE,121,9.0,11.0,-999,-99.99,,,-99.99,,2013-03-18 19:03:00,
2013-03-18 15:12:00,53.0,-99.9,30.00,ESE,119,10.0,11.0,-999,-99.99,,,-99.99,,2013-03-18 19:12:00,
2013-03-18 15:22:00,53.0,-99.9,29.99,ESE,123,11.0,12.0,-999,-99.99,,,-99.99,,2013-03-18 19:22:00,
2013-03-18 15:33:00,53.0,-99.9,29.99,ESE,118,11.0,13.0,-999,-99.99,,,-99.99,,2013-03-18 19:33:00,
2013-03-18 15:42:00,53.0,-99.9,29.98,ESE,113,10.0,11.0,-999,-99.99,,,-99.99,,2013-03-18 19:42:00,
2013-03-18 15:52:00,53.0,-99.9,29.98,ESE,122,10.0,11.0,-999,-99.99,,,-99.99,,2013-03-18 19:52:00,
2013-03-18 16:03:00,53.0,-99.9,29.98,SE,124,9.0,11.0,-999,-99.99,,,-99.99,,2013-03-18 20:03:00,
2013-03-18 16:12:00,53.0,-99.9,29.97,SE,129,9.0,10.0,-999,-99.99,,,-99.99,,2013-03-18 20:12:00,
2013-03-18 16:23:00,54.0,-99.9,29.97,SE,132,9.0,9.0,-999,-99.99,,,-99.99,,2013-03-18 20:23:00,
2013-03-18 16:33:00,54.0,-99.9,29.96,SE,131,9.0,10.0,-999,-99.99,,,-99.99,,2013-03-18 20:33:00,
2013-03-18 16:43:00,54.0,-99.9,29.96,SE,130,12.0,13.0,-999,-99.99,,,-99.99,,2013-03-18 20:43:00,
2013-03-18 16:53:00,54.0,-99.9,29.96,SE,132,12.0,14.0,-999,-99.99,,,-99.99,,2013-03-18 20:53:00,
2013-03-18 17:02:00,54.0,-99.9,29.96,SE,137,12.0,14.0,-999,-99.99,,,-99.99,,2013-03-18 21:02:00,
2013-03-18 17:12:00,53.0,-99.9,29.96,SE,139,9.0,11.0,-999,-99.99,,,-99.99,,2013-03-18 21:12:00,
2013-03-18 17:23:00,53.0,-99.9,29.96,SE,130,9.0,11.0,-999,-99.99,,,-99.99,,2013-03-18 21:23:00,
2013-03-18 17:33:00,53.0,-99.9,29.96,SE,124,6.0,7.0,-999,-99.99,,,-99.99,,2013-03-18 21:33:00,
2013-03-18 17:43:00,53.0,-99.9,29.96,ESE,112,6.0,7.0,-999,-99.99,,,-99.99,,2013-03-18 21:43:00,
2013-03-18 17:53:00,53.0,-99.9,29.95,ESE,119,6.0,8.0,-999,-99.99,,,-99.99,,2013-03-18 21:53:00,
2013-03-18 18:03:00,53.0,-99.9,29.95,ESE,119,4.0,5.0,-999,-99.99,,,-99.99,,2013-03-18 22:03:00,
2013-03-18 18:13:00,53.0,-99.9,29.95,ESE,102,2.0,3.0,-999,-99.99,,,-99.99,,2013-03-18 22:13:00,
2013-03-18 18:23:00,53.0,-99.9,29.95,East,92,3.0,4.0,-999,-99.99,,,-99.99,,2013-03-18 22:23:00,
2013-03-18 18:33:00,53.0,-99.9,29.95,ESE,107,5.0,6.0,-999,-99.99,,,-99.99,,2013-03-18 22:33:00,
2013-03-18 18:43:00,53.0,-99.9,29.94,East,101,6.0,7.0,-999,-99.99,,,-99.99,,2013-03-18 22:43:00,
2013-03-18 18:53:00,53.0,-99.9,29.94,ESE,116,6.0,7.0,-999,-99.99,,,-99.99,,2013-03-18 22:53:00,
2013-03-18 19:03:00,53.0,-99.9,29.93,ESE,123,5.0,6.0,-999,-99.99,,,-99.99,,2013-03-18 23:03:00,
2013-03-18 19:13:00,53.0,-99.9,29.93,ESE,115,5.0,6.0,-999,-99.99,,,-99.99,,2013-03-18 23:13:00,
2013-03-18 19:23:00,53.0,-99.9,29.94,East,97,5.0,6.0,-999,-99.99,,,-99.99,,2013-03-18 23:23:00,
2013-03-18 19:33:00,53.0,-99.9,29.94,ESE,112,4.0,4.0,-999,-99.99,,,-99.99,,2013-03-18 23:33:00,
2013-03-18 19:43:00,53.0,-99.9,29.93,ESE,107,6.0,6.0,-999,-99.99,,,-99.99,,2013-03-18 23:43:00,
2013-03-18 19:53:00,53.0,-99.9,29.93,ESE,109,5.0,6.0,-999,-99.99,,,-99.99,,2013-03-18 23:53:00,
2013-03-18 20:03:00,53.0,-99.9,29.92,ESE,106,3.0,4.0,-999,-99.99,,,-99.99,,2013-03-19 00:03:00,
2013-03-18 20:12:00,53.0,-99.9,29.92,SE,133,3.0,4.0,-999,-99.99,,,-99.99,,2013-03-19 00:12:00,
2013-03-18 20:23:00,53.0,-99.9,29.92,ESE,111,3.0,4.0,-999,-99.99,,,-99.99,,2013-03-19 00:23:00,
2013-03-18 20:33:00,54.0,-99.9,29.91,ESE,105,2.0,3.0,-999,-99.99,,,-99.99,,2013-03-19 00:33:00,
2013-03-18 20:43:00,53.0,-99.9,29.91,East,96,2.0,3.0,-999,-99.99,,,-99.99,,2013-03-19 00:43:00,
2013-03-18 20:52:00,53.0,-99.9,29.90,East,95,4.0,4.0,-999,-99.99,,,-99.99,,2013-03-19 00:52:00,
2013-03-18 21:02:00,54.0,-99.9,29.91,North,-999,-999.0,-999.0,-999,-99.99,,,-99.99,,2013-03-19 01:02:00,
2013-03-18 21:12:00,54.0,-99.9,29.91,NE,43,2.0,3.0,-999,-99.99,,,-99.99,,2013-03-19 01:12:00,
2013-03-18 21:23:00,54.0,-99.9,29.91,NE,56,3.0,3.0,-999,-99.99,,,-99.99,,2013-03-19 01:23:00,
2013-03-18 21:33:00,54.0,-99.9,29.92,NE,34,2.0,2.0,-999,-99.99,,,-99.99,,2013-03-19 01:33:00,
2013-03-18 21:43:00,54.0,-99.9,29.91,East,89,2.0,2.0,-999,-99.99,,,-99.99,,2013-03-19 01:43:00,
2013-03-18 21:53:00,54.0,-99.9,29.92,North,-999,-999.0,-999.0,-999,-99.99,,,-99.99,,2013-03-19 01:53:00,
2013-03-18 22:03:00,54.0,-99.9,29.92,North,-999,-999.0,-999.0,-999,-99.99,,,-99.99,,2013-03-19 02:03:00,
2013-03-18 22:13:00,54.0,-99.9,29.90,NE,53,2.0,3.0,-999,-99.99,,,-99.99,,2013-03-19 02:13:00,
2013-03-18 22:23:00,54.0,-99.9,29.88,ESE,106,5.0,6.0,-999,-99.99,,,-99.99,,2013-03-19 02:23:00,
2013-03-18 22:33:00,54.0,-99.9,29.87,East,98,6.0,6.0,-999,-99.99,,,-99.99,,2013-03-19 02:33:00,
2013-03-18 22:43:00,54.0,-99.9,29.86,East,90,5.0,6.0,-999,-99.99,,,-99.99,,2013-03-19 02:43:00,
2013-03-18 22:53:00,54.0,-99.9,29.86,East,87,5.0,7.0,-999,-99.99,,,-99.99,,2013-03-19 02:53:00,
2013-03-18 23:02:00,54.0,-99.9,29.86,North,11,2.0,3.0,-999,-99.99,,,-99.99,,2013-03-19 03:02:00,
2013-03-18 23:13:00,54.0,-99.9,29.87,NNE,16,2.0,4.0,-999,-99.99,,,-99.99,,2013-03-19 03:13:00,
2013-03-18 23:23:00,55.0,-99.9,29.88,NNW,343,4.0,4.0,-999,-99.99,,,-99.99,,2013-03-19 03:23:00,
2013-03-18 23:33:00,55.0,-99.9,29.88,North,10,4.0,4.0,-999,-99.99,,,-99.99,,2013-03-19 03:33:00,
2013-03-18 23:43:00,55.0,-99.9,29.88,NNW,340,3.0,4.0,-999,-99.99,,,-99.99,,2013-03-19 03:43:00,
2013-03-18 23:54:00,55.0,-99.9,29.88,NNW,337,6.0,7.0,-999,-99.99,,,-99.99,,2013-03-19 03:54:00,